[[{"header":{"parameterUnit":"m.s-1","parameterCategory":1,"la1":30.2991,"la2":30.254,"lo1":-89.0895,"lo2":-89.0444,"dy":0.0017,"dx":0.0017,"nx":28,"ny":28,"refTime":"2025-12-16T09:00:00:Z","depth":0,"parameterNumber":2,"parameterNumberName":"U-component_of_WINDS"},"data":[0,0,0,0,0,0,0,0,0,0,0,0,0,0,0,0,0,0,0,0,0,0,0,0,0,0,0,0,0,0,0,0,0,0,0,0,0,0,0,0,0,0,0,0,0,0,0,0,0,0,0,0,0,0,0,0,0,0,-5.2581,-5.2581,0,-5.2637,-5.2638,-5.2638,-5.2484,-5.2479,-5.2474,-5.2469,-5.2531,-5.2537,-5.2543,0,0,0,0,0,0,0,0,0,0,0,0,0,-5.2343,-5.2348,-5.2581,-5.2581,-5.2582,-5.2637,-5.2638,-5.2639,-5.2484,-5.2479,-5.2473,-5.2467,-5.2529,-5.2536,-5.2543,0,0,0,0,0,0,0,0,0,0,0,0,0,-5.2428,-5.235,-5.2581,-5.2512,-5.2506,-5.2637,-5.2638,-5.2639,-5.2486,-5.2478,-5.2471,-5.2464,-5.2526,-5.2535,-5.2544,-5.2745,0,0,-5.2572,-5.2576,0,0,0,0,0,0,0,0,-5.2423,-5.2437,-5.2521,-5.2517,-5.2511,-5.2546,-5.2576,-5.2675,-5.2487,-5.2494,-5.2469,-5.2461,-5.2542,-5.2549,-5.2576,-5.2748,-5.2751,-5.2573,-5.2579,-5.2583,-5.2585,0,0,0,0,0,0,0,-5.2418,-5.2434,-5.2603,-5.2523,-5.2516,-5.2479,-5.2483,-5.2594,-5.2558,-5.2492,-5.2481,-5.249,-5.2538,-5.2567,-5.2576,-5.2752,-5.2573,-5.2581,-5.2587,-5.259,-5.3094,-5.3101,0,0,0,0,0,0,-5.242,-5.243,-5.2601,-5.2605,-5.2448,-5.2489,-5.2494,-5.2542,-5.2556,-5.2551,-5.2496,-5.2483,-5.2555,-5.2566,-5.2578,-5.2815,-5.2582,-5.2591,-5.2596,-5.3086,-5.3095,-5.3104,0,0,0,0,0,0,-5.2416,-5.2437,-5.2599,-5.2514,-5.2532,-5.2501,-5.2556,-5.2547,-5.2576,-5.2559,-5.2552,-5.2533,-5.255,-5.2565,-5.2705,-5.2815,-5.2595,-5.2604,-5.3077,-5.3089,-5.31,-5.3291,0,0,0,0,0,0,-5.241,-5.2436,-5.2511,-5.2517,-5.2537,-5.2725,-5.2563,-5.2553,-5.2592,-5.2575,-5.2591,-5.2587,-5.2545,-5.2692,-5.2714,-5.2823,-5.2611,-5.3067,-5.3082,-5.3096,-5.3275,-5.3308,-5.3336,0,0,0,0,0,-5.2402,-5.2563,-5.2516,-5.2538,-5.263,-5.2731,-5.2743,-5.269,-5.2602,-5.2678,-5.2666,-5.2587,-5.2799,-5.2708,-5.2731,-5.2845,-5.3059,-5.3078,-5.3095,-5.3261,-5.3301,-5.3335,0,0,0,0,0,0,-5.2572,-5.2563,-5.251,-5.2678,-5.2707,-5.2705,-5.2799,-5.2735,-5.279,-5.2772,-5.2705,-5.271,-5.2863,-5.2868,-5.2766,-5.3041,-5.2914,-5.2938,-5.3033,-5.3071,-5.3101,-5.3097,-5.2618,0,0,0,0,0,-5.2629,-5.2711,-5.2699,-5.2848,-5.2865,-5.2831,-5.2872,-5.283,-5.2857,-5.2868,-5.2867,-5.2898,-5.2971,-5.3021,-5.3088,-5.3275,-5.3277,-5.3365,-5.3395,-5.3421,-5.3442,-5.3542,-5.3582,-5.3162,-5.3162,-5.3162,0,0,-5.2748,-5.2753,-5.2809,-5.2883,-5.29,-5.2987,-5.2841,-5.294,-5.3004,-5.2883,-5.3015,-5.3017,-5.3046,-5.3211,-5.3284,-5.322,-5.3558,-5.3443,-5.3464,-5.3471,-5.3565,-5.3604,-5.364,-5.3174,-5.3172,-5.317,0,0,-5.3009,-5.3021,-5.3147,-5.3168,-5.3195,-5.3171,-5.3202,-5.321,-5.3206,-5.3337,-5.3249,-5.3325,-5.3453,-5.3478,-5.3508,-5.3781,-5.371,-5.3805,-5.3966,-5.4065,-5.4098,-5.4127,-5.4225,-5.4261,-5.3826,-5.3826,-5.3827,0,-5.3154,-5.3281,-5.3221,-5.3326,-5.3362,-5.3256,-5.3384,-5.3407,-5.3456,-5.3484,-5.3411,-5.357,-5.3583,-5.3752,-5.3819,-5.3847,-5.3881,-5.3803,-5.4098,-5.4126,-5.4152,-5.4245,-5.4283,-5.3838,-5.3836,-5.3835,-5.3834,0,-5.3458,-5.3548,-5.3647,-5.3696,-5.3743,-5.386,-5.3818,-5.3874,-5.3827,-5.3812,-5.3948,-5.3959,-5.4027,-5.4064,-5.402,-5.4229,-5.4188,-5.4108,-5.3979,-5.4205,-5.4291,-5.4326,-5.3854,-5.385,-5.3847,-5.3844,0,0,-5.3827,-5.3842,-5.388,-5.3902,-5.3925,-5.3994,-5.4106,-5.4172,-5.4221,-5.4259,-5.4352,-5.4464,-5.439,-5.4424,-5.4382,-5.4469,-5.4686,-5.4377,-5.4377,-5.4435,-5.4918,-5.4979,-5.5021,-5.4639,-5.4645,-5.4651,-5.4916,0,-5.4086,-5.4277,-5.4227,-5.4419,-5.4502,-5.4403,-5.4501,-5.4528,-5.4516,-5.4586,-5.4574,-5.4654,-5.455,-5.457,-5.4651,-5.4642,-5.4782,-5.4622,-5.4727,-5.4731,-5.4723,-5.5066,-5.513,-5.5379,-5.4949,-5.4955,-5.4959,0,-5.4412,-5.4462,-5.4662,-5.4673,-5.4706,-5.4795,-5.4852,-5.4919,-5.4948,-5.4933,-5.4973,-5.4914,-5.5026,-5.4897,-5.5052,-5.4944,-5.4984,-5.4987,-5.4995,-5.5003,-5.4859,-5.5084,-5.5457,-5.5495,-5.5011,-5.5007,-5.5003,0,-5.4663,-5.478,-5.4915,-5.4937,-5.4952,-5.5018,-5.5028,-5.5048,-5.5091,-5.5142,-5.5169,-5.5233,-5.5268,-5.5319,-5.5279,-5.5188,-5.5442,-5.5308,-5.5434,-5.5435,-5.5492,-5.5489,-5.5878,-5.5518,-5.5517,-5.5516,-5.5515,0,-5.4957,-5.5083,-5.5028,-5.5111,-5.5251,-5.5193,-5.5333,-5.5331,-5.5351,-5.5433,-5.5352,-5.5431,-5.5374,-5.5449,-5.5419,-5.5553,-5.5569,-5.5562,-5.5552,-5.5569,-5.557,-5.5595,-5.5576,-5.5526,-5.5524,-5.5522,-5.552,0,-5.526,-5.5228,-5.5369,-5.5373,-5.5377,-5.548,-5.5483,-5.5561,-5.5544,-5.5649,-5.5671,-5.5645,-5.5729,-5.5695,-5.5784,-5.5763,-5.5935,-5.5903,-5.5926,-5.5918,-5.6045,-5.6034,-5.6464,-5.6518,-5.6123,-5.6127,-5.613,0,-5.545,-5.5545,-5.5559,-5.5608,-5.5623,-5.5703,-5.5747,-5.5694,-5.5743,-5.5784,-5.5857,-5.5934,-5.5992,-5.6132,-5.6122,-5.619,-5.6159,-5.6305,-5.6169,-5.6183,-5.6162,-5.6157,-5.6167,-5.6332,-5.6337,-5.6341,-5.6344,0,-5.579,-5.577,-5.5835,-5.5897,-5.5951,-5.5997,-5.6035,-5.6081,-5.603,-5.609,-5.6174,-5.622,-5.6311,-5.6389,-5.645,-5.6461,-5.6396,-5.6387,-5.642,-5.6438,-5.6447,-5.6445,-5.6001,-5.6377,-5.6374,-5.6371,-5.637,-5.6368,-5.6043,-5.6123,-5.6146,-5.6222,-5.6246,-5.6284,-5.6358,-5.6351,-5.642,-5.6489,-5.6454,-5.6553,-5.6581,-5.6655,-5.6676,-5.6753,-5.6696,-5.6744,-5.6756,-5.6769,-5.6786,-5.6435,-5.6764,-5.6763,-5.6762,-5.6762,-5.6761,0,-5.6379,-5.639,-5.646,-5.6517,-5.6578,-5.651,-5.655,-5.6605,-5.6693,-5.6723,-5.6783,-5.6881,-5.6957,-5.6953,-5.7023,-5.7086,-5.7058,-5.7106,-5.7101,-5.7105,-5.6832,-5.6797,-5.7128,-5.7128,-5.7128,-5.7128,-5.7128,-5.7128,-5.6562,-5.6694,-5.6677,-5.6821,-5.683,-5.6926,-5.6955,-5.6991,-5.7015,-5.7128,-5.719,-5.7187,-5.7204,-5.7275,-5.7342,-5.7339,-5.7369,-5.7429,-5.7416,-5.7161,-5.7124,-5.709,-5.7056,-5.7436,-5.7437,-5.7682,-5.7684,-5.7686]},{"header":{"parameterUnit":"m.s-1","parameterCategory":1,"la1":30.2991,"la2":30.254,"lo1":-89.0895,"lo2":-89.0444,"dy":0.0017,"dx":0.0017,"nx":28,"ny":28,"refTime":"2025-12-16T09:00:00:Z","depth":0,"parameterNumber":3,"parameterNumberName":"V-component_of_WINDS"},"data":[0,0,0,0,0,0,0,0,0,0,0,0,0,0,0,0,0,0,0,0,0,0,0,0,0,0,0,0,0,0,0,0,0,0,0,0,0,0,0,0,0,0,0,0,0,0,0,0,0,0,0,0,0,0,0,0,0,0,-1.4841,-1.484,0,-1.4794,-1.4793,-1.4793,-1.4753,-1.4752,-1.4752,-1.4751,-1.4702,-1.4701,-1.47,0,0,0,0,0,0,0,0,0,0,0,0,0,-1.4893,-1.4893,-1.4841,-1.484,-1.484,-1.4794,-1.4793,-1.4793,-1.4753,-1.4752,-1.4752,-1.4751,-1.4702,-1.4701,-1.47,0,0,0,0,0,0,0,0,0,0,0,0,0,-1.4861,-1.4892,-1.4841,-1.4814,-1.4812,-1.4794,-1.4793,-1.4793,-1.4753,-1.4752,-1.4752,-1.4751,-1.4702,-1.4701,-1.47,-1.4704,0,0,-1.4696,-1.4695,0,0,0,0,0,0,0,0,-1.4863,-1.4859,-1.4819,-1.4816,-1.4813,-1.4779,-1.4794,-1.4763,-1.4753,-1.4775,-1.4751,-1.4751,-1.4728,-1.4724,-1.4717,-1.4702,-1.47,-1.4695,-1.4695,-1.4694,-1.4694,0,0,0,0,0,0,0,-1.4865,-1.4861,-1.4822,-1.4818,-1.4815,-1.4804,-1.4799,-1.4788,-1.4756,-1.4773,-1.477,-1.4765,-1.4726,-1.4718,-1.4715,-1.4699,-1.4695,-1.4694,-1.4693,-1.4693,-1.4684,-1.4685,0,0,0,0,0,0,-1.4872,-1.4863,-1.4824,-1.4821,-1.4837,-1.4804,-1.4798,-1.479,-1.4756,-1.475,-1.4766,-1.4764,-1.4721,-1.4717,-1.4713,-1.4716,-1.4694,-1.4693,-1.4692,-1.4684,-1.4685,-1.4685,0,0,0,0,0,0,-1.4873,-1.4869,-1.4826,-1.4841,-1.4835,-1.4803,-1.4795,-1.479,-1.4782,-1.475,-1.4744,-1.4764,-1.472,-1.4715,-1.4707,-1.4714,-1.4692,-1.4691,-1.4683,-1.4684,-1.4685,-1.4722,0,0,0,0,0,0,-1.4875,-1.4869,-1.4872,-1.4841,-1.4834,-1.4821,-1.4796,-1.4789,-1.478,-1.4776,-1.4747,-1.4741,-1.4719,-1.4709,-1.4705,-1.4711,-1.469,-1.4682,-1.4684,-1.4685,-1.472,-1.4724,-1.4727,0,0,0,0,0,-1.4877,-1.4884,-1.4872,-1.4867,-1.4836,-1.4821,-1.4817,-1.4792,-1.4781,-1.4782,-1.4761,-1.4742,-1.4713,-1.4709,-1.4704,-1.471,-1.4682,-1.4683,-1.4685,-1.4718,-1.4723,-1.4727,0,0,0,0,0,0,-1.4915,-1.4879,-1.4866,-1.4863,-1.4846,-1.4815,-1.4816,-1.4798,-1.4783,-1.478,-1.4749,-1.4743,-1.4738,-1.4723,-1.4718,-1.4712,-1.4695,-1.4696,-1.4722,-1.4726,-1.473,-1.4734,-1.4689,0,0,0,0,0,-1.4924,-1.4915,-1.4884,-1.4884,-1.4876,-1.4848,-1.484,-1.4822,-1.4803,-1.4795,-1.4773,-1.4754,-1.4741,-1.4733,-1.4719,-1.4717,-1.4709,-1.4719,-1.4722,-1.4725,-1.4726,-1.4723,-1.4727,-1.469,-1.469,-1.469,0,0,-1.494,-1.492,-1.4916,-1.4892,-1.4876,-1.4867,-1.4842,-1.4833,-1.4826,-1.4793,-1.4784,-1.4768,-1.4744,-1.4739,-1.4735,-1.4726,-1.4735,-1.4727,-1.473,-1.4729,-1.4725,-1.4728,-1.4731,-1.4691,-1.469,-1.469,0,0,-1.4967,-1.495,-1.4949,-1.4933,-1.491,-1.489,-1.489,-1.4861,-1.4849,-1.4839,-1.4814,-1.4804,-1.4782,-1.4766,-1.4755,-1.4774,-1.4755,-1.477,-1.4789,-1.4787,-1.479,-1.4792,-1.4798,-1.48,-1.4771,-1.4771,-1.4771,0,-1.499,-1.4977,-1.495,-1.4943,-1.4933,-1.4903,-1.49,-1.4886,-1.4859,-1.4852,-1.4842,-1.4813,-1.4795,-1.4785,-1.4789,-1.4782,-1.4779,-1.4773,-1.4791,-1.4794,-1.4795,-1.4801,-1.4803,-1.4773,-1.4773,-1.4772,-1.4772,0,-1.5007,-1.4997,-1.4999,-1.4973,-1.4963,-1.4958,-1.493,-1.4922,-1.4905,-1.4887,-1.4876,-1.4854,-1.4834,-1.483,-1.4813,-1.4817,-1.4812,-1.4797,-1.478,-1.4801,-1.4806,-1.4807,-1.4776,-1.4775,-1.4774,-1.4774,0,0,-1.5057,-1.5016,-1.5017,-1.5005,-1.4976,-1.4968,-1.4961,-1.4942,-1.4935,-1.4917,-1.491,-1.4892,-1.4877,-1.4865,-1.4846,-1.4843,-1.4858,-1.4828,-1.4827,-1.4834,-1.486,-1.4871,-1.4874,-1.4846,-1.4846,-1.4846,-1.4862,0,-1.5078,-1.5065,-1.504,-1.5035,-1.5025,-1.4996,-1.499,-1.4971,-1.4953,-1.4941,-1.4921,-1.4908,-1.4891,-1.4883,-1.4879,-1.4857,-1.4863,-1.4856,-1.4838,-1.4838,-1.4845,-1.4876,-1.4889,-1.4904,-1.4863,-1.4864,-1.4864,0,-1.5101,-1.5085,-1.5078,-1.5049,-1.5044,-1.5039,-1.5019,-1.5009,-1.4986,-1.4973,-1.4959,-1.4938,-1.4928,-1.4912,-1.4897,-1.4893,-1.4884,-1.4872,-1.4872,-1.4869,-1.4852,-1.4874,-1.4909,-1.4911,-1.4866,-1.4866,-1.4866,0,-1.5137,-1.5114,-1.5107,-1.5097,-1.5063,-1.506,-1.5045,-1.5022,-1.5012,-1.4994,-1.4987,-1.4968,-1.4958,-1.4943,-1.4917,-1.4908,-1.4904,-1.4887,-1.4892,-1.4893,-1.4893,-1.4894,-1.4927,-1.4888,-1.4888,-1.4888,-1.4888,0,-1.5163,-1.5161,-1.5122,-1.5118,-1.5113,-1.5085,-1.508,-1.5063,-1.5042,-1.5033,-1.5007,-1.4998,-1.4965,-1.4952,-1.4931,-1.4922,-1.4917,-1.4906,-1.49,-1.4908,-1.4909,-1.4902,-1.49,-1.4889,-1.4889,-1.4888,-1.4888,0,-1.5203,-1.5178,-1.5168,-1.5136,-1.5128,-1.5126,-1.5098,-1.5092,-1.5072,-1.5061,-1.5057,-1.5025,-1.5009,-1.4982,-1.4957,-1.4943,-1.4937,-1.4928,-1.4945,-1.4942,-1.4949,-1.4949,-1.4978,-1.498,-1.4941,-1.4941,-1.4942,0,-1.5222,-1.5219,-1.5187,-1.5179,-1.5165,-1.5153,-1.5142,-1.5113,-1.5103,-1.5076,-1.5073,-1.5055,-1.5039,-1.5014,-1.4988,-1.4969,-1.4959,-1.4971,-1.4956,-1.4964,-1.4959,-1.4959,-1.4958,-1.4974,-1.4975,-1.4975,-1.4976,0,-1.5257,-1.5244,-1.523,-1.5211,-1.5199,-1.5183,-1.5165,-1.516,-1.5126,-1.5116,-1.5099,-1.5087,-1.5062,-1.5044,-1.5021,-1.5004,-1.4984,-1.4981,-1.4981,-1.4989,-1.4998,-1.4992,-1.4954,-1.498,-1.498,-1.4979,-1.4979,-1.4979,-1.5286,-1.5282,-1.5258,-1.5243,-1.5226,-1.521,-1.5203,-1.5182,-1.5167,-1.5145,-1.5128,-1.5113,-1.5088,-1.5055,-1.504,-1.5027,-1.5018,-1.5018,-1.5018,-1.5019,-1.5021,-1.5001,-1.5022,-1.5022,-1.5022,-1.5022,-1.5022,0,-1.5319,-1.5302,-1.5289,-1.5264,-1.5252,-1.5234,-1.5213,-1.5204,-1.5191,-1.517,-1.5155,-1.5135,-1.5117,-1.5089,-1.5069,-1.5063,-1.5053,-1.5058,-1.5058,-1.5055,-1.5031,-1.5033,-1.5067,-1.5067,-1.5067,-1.5067,-1.5067,-1.5067,-1.5335,-1.5326,-1.531,-1.5293,-1.5275,-1.526,-1.525,-1.5234,-1.5217,-1.5196,-1.5181,-1.5164,-1.514,-1.5117,-1.5099,-1.5091,-1.5085,-1.5093,-1.5082,-1.5061,-1.5056,-1.5053,-1.5054,-1.5092,-1.5092,-1.5107,-1.5107,-1.5107]}]]